Wind_Speed
2 3 4 5 4 5 6 7 8 10 13 15 16 17 18 18 18 17 17 18 18 17 15 14 14 14 14 14 14 13 13 13 13 13 14 14 14 15 15 15 14 14 13 12 12 12 11 11 11 10 10 9 9 8 7 7 6 5 5 4 3 3 3 3 4 4 5 5 5 6 7 8 10 11 12 12 13 14 14 14 14 14 14 15 15
1 2 2 3 3 4 5 7 9 11 13 15 17 18 18 18 17 17 17 17 18 17 16 15 14 14 14 14 13 12 12 12 12 13 13 14 14 14 15 15 14 14 13 13 12 12 12 12 11 11 10 10 9 9 8 7 7 6 5 5 4 3 3 3 4 4 4 5 6 7 8 10 12 12 12 13 14 14 14 14 14 14 14 15 15
1 0 1 2 2 4 5 7 10 12 14 16 17 18 18 17 17 16 17 17 17 17 17 16 15 15 14 14 13 12 12 12 12 12 13 13 14 14 14 14 14 14 14 13 12 12 12 12 11 11 11 10 10 10 9 8 7 6 6 5 4 4 4 4 4 4 5 6 7 8 10 11 11 11 12 13 13 14 14 14 14 14 15 15 15
1 0 1 1 2 3 5 8 11 13 15 16 17 17 17 17 17 16 17 18 18 18 18 17 16 15 14 14 12 12 12 12 12 12 12 13 14 14 14 14 14 14 14 13 13 12 12 12 11 11 11 11 10 10 10 9 8 7 6 5 4 4 5 4 4 5 6 7 7 9 10 10 10 11 12 12 12 13 13 14 14 15 15 16 16
0 0 1 1 2 3 5 8 11 14 15 17 17 17 17 17 17 16 17 18 19 19 19 19 17 14 13 13 12 11 11 12 12 12 12 12 13 14 14 14 14 14 14 14 13 12 11 11 11 11 11 11 11 10 10 10 9 7 6 5 4 4 4 4 5 5 7 7 8 9 9 9 10 11 11 11 11 12 12 13 14 15 15 16 16
2 2 2 3 4 5 6 8 10 13 15 17 17 17 17 17 18 17 17 17 18 19 20 19 17 14 12 12 11 10 10 11 11 11 12 12 12 13 14 14 15 15 15 14 13 12 11 11 11 11 11 11 11 11 11 10 9 7 6 5 4 4 4 4 5 6 7 7 7 8 7 8 10 10 10 10 10 11 12 12 13 14 15 16 17
5 5 4 5 6 7 8 9 11 12 14 16 17 17 17 18 19 19 18 17 16 17 18 19 17 13 12 12 11 10 10 10 10 11 11 12 12 13 13 14 15 15 15 14 13 12 11 11 11 11 11 11 11 11 11 10 9 7 6 5 4 4 4 4 5 6 6 6 6 6 7 9 9 10 9 9 10 11 12 12 14 15 16 17 18
6 6 6 7 8 9 10 11 12 12 14 15 16 17 17 19 19 20 19 18 17 16 16 17 17 13 11 11 11 10 9 9 10 11 11 12 12 13 13 14 15 15 15 15 14 13 12 11 11 11 11 11 11 11 11 10 9 7 6 5 6 5 4 4 5 5 5 6 6 6 8 9 9 9 9 9 10 12 12 13 14 15 17 17 18
6 7 7 8 10 11 12 13 13 13 14 14 16 17 17 19 20 21 21 20 17 16 15 14 15 13 10 10 10 9 9 9 10 11 11 12 13 13 14 14 14 14 15 15 14 14 13 12 11 11 11 11 11 11 11 10 8 7 6 6 7 6 5 5 5 5 6 6 7 7 9 9 8 8 9 10 11 12 13 14 15 16 17 18 19
5 6 7 9 10 11 13 13 13 14 14 15 15 16 17 19 20 22 21 21 18 16 15 13 13 12 10 9 9 9 9 10 10 11 11 12 13 13 14 14 14 14 14 14 15 14 14 13 12 12 11 11 11 11 11 10 8 7 7 6 7 6 5 5 6 6 7 7 7 7 9 9 8 9 10 10 11 13 14 15 16 17 18 19 19
4 5 7 9 11 11 13 13 13 13 14 14 15 16 16 18 20 22 22 21 19 17 15 13 12 11 10 9 9 9 10 10 10 11 11 12 12 13 13 13 14 14 14 14 14 15 14 14 13 13 12 12 11 11 10 9 8 8 8 7 7 7 6 6 6 6 7 7 8 7 8 9 8 10 11 11 12 13 14 15 16 17 18 19 20
4 5 7 9 11 12 13 13 13 13 13 14 14 15 15 17 19 21 22 21 19 17 16 13 11 10 9 9 8 9 9 10 10 11 11 11 12 12 12 13 13 13 14 14 14 14 14 14 14 14 13 12 11 10 9 9 8 8 8 9 8 8 7 7 6 6 6 7 8 8 9 9 9 11 12 12 13 13 14 15 16 17 18 19 20
6 9 11 11 12 12 13 14 13 13 13 13 14 14 15 16 18 20 21 21 19 17 16 13 11 9 9 9 8 9 9 9 10 10 10 11 11 11 12 12 12 13 13 13 13 13 14 14 14 15 14 13 12 10 10 9 9 9 9 9 9 8 8 8 7 7 7 8 8 9 9 10 10 12 13 13 13 13 14 16 17 18 19 20 21
11 13 14 13 12 12 14 14 13 13 12 13 13 14 15 16 17 19 21 21 19 18 16 14 11 9 9 9 8 8 8 8 9 10 10 11 11 11 11 12 12 12 12 13 13 13 14 14 14 15 14 13 12 11 11 11 10 10 9 10 10 9 9 9 8 8 8 8 8 9 10 11 12 13 13 13 13 14 15 16 17 19 20 21 22
14 13 12 11 11 12 13 13 13 13 12 12 13 13 14 15 17 19 20 21 19 18 16 13 11 9 8 8 8 8 8 7 8 9 9 10 10 10 11 11 11 12 12 12 13 13 14 14 14 14 14 13 13 12 12 12 12 10 9 11 11 10 9 9 9 8 8 8 9 10 11 12 13 14 13 12 13 14 16 17 19 20 21 21 21
14 11 9 9 9 10 12 13 13 13 12 12 13 13 14 15 16 18 19 20 19 18 17 13 11 9 8 8 9 9 8 8 7 8 8 8 9 10 10 10 11 11 11 12 12 13 13 14 14 13 14 13 13 12 13 14 13 11 10 11 11 10 10 10 9 8 8 9 9 10 11 13 14 14 13 13 14 15 17 18 20 20 21 21 20
12 9 8 8 8 9 11 12 12 13 13 13 13 13 14 15 16 17 18 20 19 18 17 14 12 10 8 9 10 10 9 9 8 8 8 8 8 9 10 10 11 11 11 12 12 13 13 14 14 14 14 13 13 12 13 14 13 12 12 12 11 10 11 11 10 9 9 9 10 11 12 13 14 14 13 13 14 16 18 19 20 20 19 19 19
11 9 10 10 10 11 11 12 12 13 13 14 14 14 14 15 16 17 18 19 19 19 18 15 13 12 10 10 11 11 11 10 10 9 9 8 8 8 9 10 11 12 12 12 13 13 14 14 15 14 14 13 13 13 12 13 13 13 14 13 12 11 11 11 11 10 10 10 11 12 12 14 14 14 13 13 15 17 18 19 19 18 17 17 18
12 12 13 13 13 14 14 13 12 13 14 14 15 15 15 15 16 17 18 18 19 19 19 16 14 13 12 11 12 12 11 11 11 10 10 9 8 8 9 10 11 12 12 13 13 13 14 14 15 14 14 14 14 13 12 13 13 14 14 14 12 11 11 11 11 11 11 11 12 12 13 14 14 13 13 13 15 17 18 18 17 17 17 17 18
14 14 15 14 15 16 16 15 14 14 14 15 15 15 15 16 16 17 17 18 18 19 20 17 15 14 13 12 12 12 11 11 11 11 10 9 8 8 8 9 10 11 12 12 12 13 13 13 14 14 14 14 14 13 12 13 13 13 13 13 12 12 11 11 11 12 12 12 12 13 13 13 13 13 13 14 16 17 18 18 16 16 17 18 18
16 16 15 15 16 17 18 17 16 16 16 15 15 16 16 16 17 17 17 17 18 19 20 18 16 15 14 13 12 12 11 11 11 11 11 10 9 9 9 10 11 12 12 12 11 12 12 12 13 14 14 15 14 13 12 12 11 12 13 13 12 11 11 11 12 12 13 13 13 13 12 13 13 13 14 15 16 18 18 17 16 16 17 18 19
18 17 16 15 16 17 19 19 19 18 17 17 16 16 16 16 17 17 17 17 17 19 20 19 16 15 15 13 12 11 11 11 11 12 11 11 11 10 10 10 11 12 12 12 11 12 13 13 13 14 15 15 15 13 11 10 10 11 13 13 12 11 11 12 13 13 14 14 14 13 12 12 13 13 14 16 17 18 17 16 16 17 18 20 21
19 19 18 17 16 18 20 22 22 21 20 18 16 16 16 17 17 17 17 17 17 18 19 19 17 15 15 14 12 11 11 11 11 12 12 12 12 11 11 11 12 13 13 12 12 13 13 13 12 13 14 14 14 13 10 9 9 11 13 12 12 12 13 13 13 13 13 14 13 12 12 12 13 14 15 16 17 17 17 16 16 18 20 21 22
20 21 21 21 21 21 23 24 24 23 22 20 17 16 16 17 17 17 16 17 17 18 19 19 17 15 14 13 12 12 12 12 12 12 12 13 13 12 11 11 12 13 13 13 13 13 12 11 11 13 13 12 13 13 11 9 9 11 12 11 12 13 13 13 13 13 13 13 13 13 13 13 14 15 15 16 17 17 16 16 17 19 21 23 24
19 22 24 25 25 24 24 24 24 24 24 22 19 17 17 17 17 17 16 17 17 18 19 19 17 16 14 13 12 12 13 12 12 12 13 14 14 13 12 12 12 13 13 13 13 12 10 10 12 13 13 11 12 13 11 10 9 11 11 10 11 13 13 14 14 14 13 13 13 13 13 14 14 15 16 17 17 17 16 17 18 20 22 24 25
18 21 23 24 23 22 24 24 24 24 24 23 20 18 17 17 17 16 16 17 17 17 19 19 17 16 14 13 13 13 13 13 12 13 14 14 14 13 12 12 12 12 12 12 12 11 9 10 13 14 13 12 12 12 11 10 10 11 11 8 10 12 14 15 16 14 13 13 13 13 14 14 14 15 16 17 17 17 16 18 19 21 23 24 26
20 21 21 22 22 22 23 22 21 21 22 22 20 18 18 18 16 15 16 17 17 17 18 18 17 15 15 14 14 14 14 14 14 14 15 15 15 13 12 12 13 12 12 11 11 10 9 11 13 14 13 11 11 11 10 10 11 12 11 9 10 12 14 16 16 14 13 13 13 14 14 14 14 15 16 17 17 17 17 18 20 22 24 25 26
21 21 20 22 24 23 20 19 19 19 20 19 19 19 19 18 16 15 16 17 16 17 18 18 17 15 15 15 15 14 14 15 14 15 16 16 15 13 12 12 13 12 11 11 10 10 10 12 13 12 11 10 10 9 8 9 11 12 11 10 10 11 13 15 14 13 13 13 13 14 14 14 15 16 17 17 17 17 18 20 22 24 25 26 27
20 22 22 23 23 20 17 17 18 18 18 18 17 18 19 19 17 16 16 17 16 16 17 17 17 16 15 15 15 15 15 15 15 16 17 17 15 13 12 12 12 12 11 10 9 10 11 11 10 9 8 8 8 7 7 9 11 11 11 12 11 10 12 14 13 13 13 13 13 13 14 15 15 16 17 17 17 18 19 21 23 25 26 27 28
19 21 21 21 21 18 17 17 18 18 18 18 17 17 18 18 17 16 16 16 16 16 17 18 17 17 16 16 15 15 15 15 16 17 18 17 15 13 12 13 12 11 10 8 9 10 9 8 7 7 8 8 8 8 8 8 10 11 11 13 11 10 11 13 13 14 14 14 14 14 14 15 16 16 17 18 19 19 21 23 25 26 27 27 28
16 18 20 22 22 20 19 19 20 20 19 18 18 17 17 18 17 17 16 16 15 16 18 18 18 18 18 17 16 17 17 17 18 18 18 16 15 13 13 13 12 11 9 8 9 9 8 6 6 8 10 11 10 10 8 7 9 11 13 13 11 9 10 12 14 15 15 15 15 15 15 15 16 17 18 19 20 21 23 24 26 27 27 28 30
16 19 22 24 24 23 21 20 20 20 19 19 18 16 17 18 18 17 16 16 16 17 18 20 19 19 18 17 17 18 19 19 18 18 16 15 14 14 14 14 13 12 10 9 10 9 8 7 8 10 12 13 12 11 9 9 11 13 14 12 10 9 10 13 15 15 15 15 16 16 16 16 17 17 18 20 21 23 24 26 26 27 28 30 31
19 23 25 27 26 24 20 19 20 20 19 19 18 16 16 18 18 18 17 16 17 18 19 21 21 19 18 18 18 19 19 19 18 16 15 14 13 13 14 14 13 12 11 10 10 9 9 9 10 11 12 12 13 12 12 11 12 13 13 11 9 9 11 14 15 15 16 16 17 17 18 18 18 18 19 20 22 24 25 26 27 28 29 30 31
27 28 28 29 28 24 20 19 20 19 18 19 17 15 16 18 19 19 18 18 18 19 20 22 22 20 19 19 18 18 18 18 17 16 14 14 13 13 13 13 13 12 11 10 10 10 10 11 12 11 10 11 12 12 12 11 11 12 12 11 9 9 12 14 15 16 16 17 18 18 19 19 19 19 20 21 23 24 25 26 27 28 29 30 32
32 30 28 29 28 25 22 20 20 19 17 18 17 15 15 18 19 19 19 19 19 20 21 23 22 21 20 19 18 17 17 17 17 16 14 13 13 13 13 12 13 13 11 10 10 10 11 12 13 12 10 11 11 11 11 11 11 11 11 11 9 10 12 14 15 15 16 16 18 19 20 20 20 21 21 22 24 25 26 27 28 29 30 31 32
30 28 27 27 26 25 23 20 19 17 16 17 18 17 16 18 20 20 20 20 21 21 22 23 23 22 21 20 18 18 18 17 17 16 14 13 13 13 13 12 12 13 12 10 10 10 11 13 13 13 12 12 12 11 11 10 11 11 11 11 10 11 13 14 14 15 15 17 18 19 20 20 21 21 22 23 25 26 27 28 28 29 31 32 33
25 25 26 27 26 26 24 20 18 16 16 18 20 19 18 18 20 21 20 21 22 22 23 23 24 23 21 20 19 18 18 18 18 16 14 13 13 13 12 12 12 12 11 10 10 10 11 13 14 14 13 13 13 12 11 10 10 11 11 10 10 11 13 14 14 15 16 17 18 19 20 20 21 22 23 25 26 27 28 28 29 30 31 33 34
24 26 27 27 26 25 22 18 17 16 17 19 21 21 19 18 18 19 19 20 21 22 22 24 24 23 22 21 20 19 18 18 18 16 15 14 13 13 13 13 12 12 11 11 11 10 11 13 14 14 14 14 13 12 11 9 10 10 10 9 9 11 13 14 15 16 17 18 18 19 20 20 21 22 24 25 27 28 28 29 31 31 32 33 35
26 27 28 27 24 24 21 17 17 17 18 20 21 22 21 20 20 21 20 20 21 21 22 24 24 23 22 21 20 20 19 19 18 16 15 14 13 13 13 13 12 12 11 11 11 10 11 13 14 14 14 13 12 12 10 9 9 10 9 8 10 12 14 15 16 17 18 18 19 19 19 20 22 23 24 26 28 29 30 31 32 33 34 35 36
27 26 26 25 23 22 20 18 19 19 20 21 21 23 23 23 23 23 22 20 21 22 23 24 24 23 22 22 22 21 21 19 18 17 16 15 14 13 13 13 13 12 12 12 11 11 10 12 13 14 14 13 11 11 10 9 8 9 9 9 11 13 15 16 17 17 18 19 19 19 19 21 23 24 25 27 28 30 31 33 34 35 36 37 38
27 25 24 23 22 21 20 19 20 21 22 22 23 24 25 25 25 25 23 21 22 23 24 24 25 24 23 23 23 22 21 19 17 16 16 15 14 14 13 13 13 13 13 13 12 10 10 10 12 14 14 13 11 10 9 9 9 9 9 10 13 15 16 17 17 18 19 20 20 19 20 22 24 25 26 28 29 31 33 34 36 37 38 39 40
26 24 22 21 21 20 20 21 22 24 24 24 24 25 26 26 26 26 25 22 23 25 25 25 25 25 24 23 23 23 21 19 17 16 16 16 16 14 13 13 14 14 14 14 13 10 9 9 12 13 14 13 11 10 10 9 10 10 9 11 14 16 17 17 18 19 19 20 20 20 22 23 25 26 28 29 31 33 35 36 38 39 40 41 41
28 27 24 23 21 21 21 23 24 25 26 26 26 25 26 27 27 28 26 24 24 26 26 26 26 25 24 23 23 23 21 19 17 16 17 17 16 15 14 13 14 15 15 14 12 11 9 9 11 13 13 13 12 11 10 10 11 10 10 13 16 17 18 19 19 20 20 20 21 22 23 25 26 27 29 31 33 35 37 38 39 40 41 42 43
30 29 27 24 23 23 25 25 26 27 29 29 27 26 28 29 28 28 27 25 25 28 28 27 27 25 24 24 24 23 22 20 18 17 18 18 17 16 15 15 15 15 15 14 12 11 9 9 11 13 13 13 12 12 11 11 11 11 12 14 17 18 19 20 21 21 21 21 22 23 24 25 27 28 30 33 35 37 38 39 40 41 42 43 44
31 31 29 26 25 26 27 27 28 30 30 30 29 29 30 31 29 28 26 25 26 29 29 28 27 25 24 24 25 24 22 20 18 18 18 18 17 17 16 16 15 15 15 14 12 11 10 9 11 13 13 13 13 12 11 11 11 12 14 16 18 19 20 21 22 22 22 22 22 23 24 26 28 29 31 33 36 38 40 41 41 42 43 44 45
31 31 32 29 26 27 29 29 31 32 32 31 31 31 32 31 29 27 27 26 28 30 30 29 27 25 24 25 25 23 21 19 18 18 18 18 17 17 16 16 16 16 15 14 12 10 10 10 11 13 13 13 13 12 12 12 13 14 15 17 19 20 21 22 23 23 23 23 23 24 25 27 28 30 32 34 37 39 40 42 43 43 44 45 46
31 33 36 34 30 28 29 31 33 34 34 34 33 33 33 31 28 28 28 28 29 30 30 29 27 25 24 25 25 23 21 19 18 18 17 17 17 16 16 16 17 16 14 13 12 11 10 10 12 13 13 13 13 13 13 13 14 16 17 18 19 21 21 22 23 23 23 23 24 25 27 28 30 31 33 35 38 40 41 42 43 44 45 46 46
34 36 37 35 33 31 30 32 34 35 35 36 35 34 33 30 29 29 29 30 30 30 30 29 26 25 24 25 25 23 20 19 18 18 17 16 17 16 15 16 17 16 14 12 11 11 10 11 12 13 13 13 13 13 14 14 16 17 18 19 20 21 22 23 24 24 23 24 25 26 28 29 31 32 34 36 39 41 42 44 44 45 46 47 47
39 37 33 31 34 35 34 34 36 37 37 36 35 34 33 31 30 30 30 31 30 30 29 27 26 25 25 25 25 22 20 19 19 18 16 16 16 16 15 16 16 15 13 11 11 11 11 12 13 13 13 13 14 14 15 16 17 18 18 19 20 22 22 23 24 24 24 25 26 27 29 30 32 34 36 38 40 42 44 45 45 46 47 48 48
37 36 34 33 36 38 37 37 40 40 38 36 35 34 33 32 31 31 31 30 29 29 28 26 26 25 25 25 24 21 19 18 18 18 17 16 16 16 16 16 16 15 13 11 11 11 12 13 13 13 13 13 14 14 15 17 17 18 19 20 21 22 23 23 24 24 25 26 27 28 30 31 33 36 38 40 42 43 45 46 47 47 48 49 49
38 39 39 40 40 40 38 39 41 41 37 36 36 35 34 32 31 30 30 29 28 27 26 26 26 25 24 21 19 19 19 18 18 18 18 17 16 16 16 16 16 14 13 12 11 12 12 13 14 14 14 14 14 15 16 17 18 19 20 21 22 22 23 24 24 24 25 26 28 29 31 32 35 37 40 42 44 45 46 47 47 48 49 49 50
Wind_Direction
287 293 303 311 321 337 350 356 356 1 1 1 3 6 8 11 16 17 19 23 25 23 17 11 7 3 360 359 359 360 1 1 2 3 5 6 7 6 3 1 1 0 1 3 4 4 5 4 4 2 359 357 356 355 356 357 356 354 349 345 348 352 2 19 35 41 38 35 29 24 22 15 15 13 6 7 9 9 10 10 8 6 3 1 1
358 313 324 323 341 359 5 5 1 2 1 1 4 7 8 10 16 19 21 24 25 21 16 9 4 0 358 357 358 360 1 2 2 4 6 6 7 5 2 0 359 359 0 1 3 5 5 5 5 3 359 357 356 356 356 358 360 0 358 354 355 5 24 38 49 53 46 40 35 30 24 21 18 10 4 7 9 11 12 11 10 7 5 3 2
57 4 355 350 17 23 19 8 4 3 2 2 4 7 7 8 13 19 22 23 24 21 15 9 3 358 356 355 357 360 1 2 3 4 6 7 7 5 2 360 359 359 0 0 2 4 5 5 5 2 358 356 356 356 356 358 0 3 3 360 3 21 33 36 42 42 38 37 34 30 25 23 18 8 6 8 9 10 10 8 7 5 4 2 1
83 96 11 11 26 25 19 7 6 4 2 2 4 6 5 6 10 17 23 24 25 22 16 11 5 358 355 355 358 1 1 2 3 4 6 7 6 4 2 359 358 359 359 359 0 2 2 4 3 359 356 355 354 355 354 355 358 3 2 357 6 30 36 28 34 33 30 31 25 24 22 18 12 5 8 10 8 7 6 5 4 3 2 1 360
65 48 336 341 1 4 7 3 3 2 1 360 2 3 2 2 3 9 19 23 24 23 18 13 10 3 357 356 0 4 2 1 1 3 4 6 5 2 360 358 358 358 358 357 357 358 359 360 359 355 353 352 352 352 351 352 356 360 356 352 3 29 35 16 25 28 24 24 19 23 18 7 6 4 6 7 4 3 3 3 1 1 359 357 355
273 290 312 322 334 342 352 354 356 356 355 356 357 358 357 356 353 355 1 11 17 20 19 15 14 9 2 359 1 5 4 1 360 1 2 4 4 0 358 356 357 357 356 355 354 354 355 355 353 350 349 349 350 350 349 351 353 355 352 347 351 17 29 7 13 20 19 18 16 21 6 352 2 3 0 359 355 354 357 359 357 356 355 353 351
278 285 293 307 318 326 336 341 345 347 348 350 351 352 353 351 349 348 349 356 3 10 15 15 15 14 9 2 1 5 4 1 359 359 0 0 1 359 356 355 355 355 354 353 351 351 351 351 348 345 345 346 348 349 349 349 350 352 348 339 331 349 16 4 5 12 12 7 8 11 349 344 0 359 350 343 340 344 348 349 350 350 349 348 346
286 292 293 299 309 316 323 328 334 337 339 343 344 345 348 348 347 346 347 350 355 360 6 10 12 16 15 7 3 4 4 1 359 358 357 357 358 357 354 353 352 352 352 351 350 349 349 346 342 340 340 342 346 349 349 347 346 346 341 328 317 332 358 351 349 355 352 349 355 356 340 343 359 353 337 327 328 334 339 340 341 343 343 342 340
291 297 302 300 303 310 315 319 322 327 331 335 338 339 343 344 345 346 347 349 353 356 360 4 7 14 17 11 5 2 5 4 1 358 355 355 355 354 352 350 349 349 349 349 348 347 346 342 339 337 336 339 343 347 348 345 340 335 328 317 311 324 341 332 332 336 333 336 345 345 335 342 355 345 329 322 324 328 332 333 335 336 336 336 334
299 305 314 310 306 307 311 312 313 317 321 326 331 334 338 340 344 345 347 349 351 354 357 360 2 9 16 15 9 4 6 7 4 360 356 354 353 352 348 347 346 345 345 346 346 346 344 341 337 335 335 337 341 346 347 343 334 324 314 306 306 316 323 318 321 324 325 328 333 336 332 337 346 338 328 325 325 326 328 329 330 331 330 330 329
307 319 321 317 313 309 308 307 308 309 312 317 322 328 332 335 341 345 347 349 350 351 353 357 360 6 14 16 13 7 7 10 7 1 356 353 351 349 346 344 342 341 341 342 344 344 343 340 337 335 335 338 341 345 344 337 325 315 307 303 304 308 311 310 313 316 318 319 323 330 330 332 338 333 328 327 327 327 327 327 327 326 326 325 325
304 327 327 321 316 312 309 305 304 303 304 308 314 320 324 330 337 343 346 348 349 349 350 353 358 7 15 17 15 10 7 10 8 1 356 352 348 345 343 340 339 338 337 338 340 340 340 338 337 336 338 341 342 340 337 328 319 311 306 303 303 304 305 302 304 307 308 310 317 322 324 329 333 329 327 327 328 328 327 326 325 324 323 322 322
291 312 318 317 315 311 306 303 301 298 300 302 307 312 317 325 334 342 345 347 348 347 349 351 356 8 16 18 20 15 9 10 8 2 356 351 347 343 340 338 337 335 333 333 334 335 335 335 335 338 341 343 340 335 329 322 317 314 310 302 299 300 299 295 296 298 300 305 310 314 320 326 327 325 325 326 328 328 327 325 324 322 321 321 321
290 302 305 306 309 307 303 300 298 295 296 298 301 306 311 320 330 339 344 345 346 346 347 350 354 6 17 20 23 20 12 10 9 4 357 351 345 342 339 338 336 333 330 328 329 330 330 331 333 337 339 338 336 333 325 320 319 319 313 299 294 294 291 291 292 293 296 302 306 312 319 322 321 322 323 324 326 326 326 324 323 321 321 321 322
290 295 295 297 301 301 299 297 295 293 293 294 297 301 308 316 326 336 342 345 344 343 345 348 351 359 12 16 19 17 10 6 8 5 357 349 341 339 339 338 336 332 329 326 327 326 326 327 330 332 330 329 331 330 325 323 323 322 311 296 294 294 288 286 288 291 294 297 301 306 313 317 318 318 319 321 324 325 324 324 323 322 321 322 324
283 287 284 284 291 295 296 295 295 294 293 293 294 298 304 312 322 332 340 344 343 341 343 345 345 349 360 5 9 10 4 360 3 3 355 345 337 336 337 336 334 331 328 326 326 324 323 323 323 323 321 322 325 326 325 325 326 322 307 296 296 293 286 284 285 289 292 293 297 302 308 312 312 312 315 319 322 323 323 323 322 321 320 322 325
273 275 273 273 279 289 296 297 297 296 294 293 293 295 301 308 317 327 336 342 342 340 340 340 339 338 347 357 2 4 1 359 359 359 351 342 337 334 334 334 332 330 328 327 326 323 320 318 316 315 316 317 318 321 324 324 325 321 309 302 300 293 288 286 285 286 288 291 295 299 304 307 307 308 311 316 319 321 322 322 320 319 320 323 326
260 260 267 274 275 281 292 300 301 298 296 293 292 293 297 304 312 321 330 338 340 339 336 335 334 331 338 351 358 1 2 0 358 357 352 346 342 336 333 332 331 330 328 328 325 320 316 314 313 312 314 314 314 318 320 319 320 319 312 310 308 298 292 290 288 286 286 288 292 297 302 305 303 304 309 314 317 320 321 321 320 320 322 324 327
251 257 265 270 271 275 284 295 301 300 297 293 291 291 293 299 307 316 324 333 338 338 334 332 330 327 334 344 352 357 359 359 358 357 354 352 348 337 331 330 329 328 327 327 324 319 316 314 312 311 313 312 311 314 316 314 317 316 312 313 313 304 296 291 288 286 284 285 290 295 300 301 300 302 308 312 317 320 320 320 320 321 323 325 327
256 260 262 265 268 273 280 289 297 300 297 293 290 289 291 296 302 309 318 328 335 336 333 331 327 325 331 339 346 350 353 355 356 357 355 354 347 335 327 325 326 325 324 324 324 322 319 316 312 311 311 309 309 312 313 313 317 317 313 315 313 305 297 289 285 285 285 286 289 293 296 296 298 302 307 312 317 319 319 319 320 322 323 325 326
265 262 260 263 268 273 278 285 293 298 296 292 288 287 289 293 298 304 314 324 332 335 332 331 328 325 328 335 341 344 347 350 353 355 353 350 342 330 321 319 322 324 323 324 326 326 324 320 314 312 310 308 307 309 311 313 319 319 316 317 312 301 293 285 282 283 285 287 289 292 293 294 297 301 306 312 316 317 318 319 320 322 324 325 326
268 265 263 265 269 274 279 285 292 298 296 291 287 285 286 290 294 300 310 321 330 332 331 331 328 324 325 331 337 339 342 346 350 351 349 345 338 328 318 315 319 323 324 325 327 328 326 323 318 316 311 307 306 306 308 313 321 319 315 316 312 300 289 282 281 281 283 286 289 292 293 294 296 300 306 312 315 316 317 318 320 322 323 325 327
269 268 265 264 268 275 280 285 290 295 296 291 285 282 283 285 290 297 307 318 326 328 329 330 328 325 325 328 332 334 338 343 346 346 345 342 337 327 315 312 315 321 325 324 326 328 328 327 326 323 315 310 306 302 301 305 312 310 308 312 311 300 289 284 282 282 284 286 289 290 290 292 295 300 306 310 313 315 315 317 320 322 323 325 327
271 270 268 267 271 274 279 285 288 291 293 291 285 279 279 281 287 295 305 315 322 325 328 329 327 326 327 327 329 331 335 339 342 341 341 341 336 325 314 310 312 319 323 321 324 329 333 334 332 327 319 311 301 294 293 296 301 298 299 309 309 300 291 287 285 284 286 288 289 288 288 291 295 300 306 309 312 313 314 317 320 322 323 325 326
275 274 271 272 274 273 277 283 285 287 289 290 284 277 276 277 283 292 303 311 319 324 326 328 326 326 327 326 327 328 331 334 336 336 338 339 334 324 313 308 310 316 319 318 322 329 336 335 330 323 316 305 294 292 293 293 290 285 289 301 301 295 291 287 284 284 287 287 286 285 288 291 295 301 306 309 311 312 314 318 320 321 322 323 323
279 281 275 273 273 272 275 281 284 286 288 288 284 277 275 274 280 290 301 310 318 323 324 327 326 325 325 323 323 324 326 328 331 334 336 335 332 323 313 307 309 314 316 317 321 326 331 327 322 316 309 299 292 294 296 290 279 274 280 286 286 286 287 284 282 284 286 284 284 285 287 290 295 302 306 308 309 311 314 318 319 319 320 321 323
282 283 278 272 271 272 275 279 283 287 289 288 284 279 275 274 279 289 299 308 317 321 322 325 325 323 321 319 319 320 321 323 328 332 332 332 330 324 314 307 309 313 315 315 319 322 322 320 316 311 306 299 293 295 297 288 273 268 275 276 273 278 283 282 281 283 281 282 283 284 284 289 296 303 306 307 308 310 314 316 317 317 319 321 323
277 276 277 273 270 271 273 277 283 288 291 289 285 280 276 275 279 288 297 306 316 320 320 322 323 321 319 317 315 315 317 320 325 329 330 330 330 324 312 307 310 313 312 313 316 317 317 316 312 308 308 306 301 298 291 280 269 268 281 288 280 279 282 281 281 282 280 281 282 282 285 293 301 305 306 306 308 310 313 314 316 318 320 321 322
270 271 275 273 268 269 271 276 283 289 292 291 287 281 278 277 280 288 296 306 315 318 317 319 321 319 316 314 312 312 314 317 322 327 330 330 327 322 312 307 309 310 310 311 314 316 317 315 310 310 316 320 314 300 279 268 264 266 287 299 291 282 281 281 284 284 283 283 283 285 290 298 304 306 306 306 308 310 313 314 317 319 320 321 322
267 270 272 269 265 267 271 277 284 289 291 291 288 283 280 279 282 289 297 307 314 316 315 317 318 317 314 312 311 311 312 315 321 327 330 328 324 319 312 308 306 306 306 308 313 316 318 316 307 306 314 321 316 296 278 262 255 265 290 299 291 284 282 284 286 286 286 287 288 291 295 301 304 305 306 307 309 312 314 317 318 319 319 321 322
262 268 271 269 265 265 270 277 283 286 289 290 288 284 282 281 284 290 298 308 314 314 314 316 316 314 314 313 312 311 311 315 322 328 328 324 320 316 312 307 302 301 302 304 311 315 317 314 303 297 302 307 302 289 277 258 255 273 291 294 289 288 285 284 286 286 288 290 292 295 299 303 305 306 307 308 311 314 317 318 318 318 320 322 322
258 270 276 273 266 264 268 274 279 282 287 289 287 286 284 284 285 290 298 308 314 314 315 315 314 313 313 312 311 310 311 316 323 326 324 319 315 313 310 305 298 298 298 300 307 313 312 309 303 298 298 299 293 285 277 268 270 280 287 288 288 290 285 284 285 286 288 291 294 298 302 305 306 306 307 309 312 315 317 316 317 319 320 321 320
265 275 277 272 266 263 265 269 275 280 286 287 285 286 284 284 286 291 299 307 311 314 314 312 311 310 309 309 308 309 313 317 321 321 318 313 311 309 306 300 296 296 297 300 306 311 311 309 307 302 298 294 289 284 279 277 278 281 283 283 284 284 281 283 286 288 290 294 298 301 303 305 305 306 308 310 312 314 315 315 317 318 319 318 318
269 273 272 268 263 262 263 265 272 278 282 282 282 283 284 285 286 292 299 305 309 310 309 307 307 307 306 307 308 310 314 316 318 317 313 310 307 305 302 297 294 293 294 298 305 311 312 312 312 307 295 286 284 281 280 281 282 282 283 282 279 276 277 281 284 286 290 294 297 299 302 303 304 306 308 310 311 311 313 314 316 316 316 317 317
265 266 264 261 261 264 263 262 268 274 278 278 279 280 282 285 287 291 297 301 305 306 305 303 304 305 305 306 308 309 313 315 315 314 309 306 304 302 299 295 291 289 290 295 303 310 312 313 312 307 294 282 280 282 284 285 285 284 282 278 274 272 273 275 277 281 286 290 293 296 299 300 302 304 307 308 309 310 312 314 315 315 316 316 316
257 259 256 255 261 266 264 261 266 273 277 276 278 280 282 286 287 289 293 297 301 303 303 303 303 304 304 305 305 308 311 313 313 310 306 302 301 299 297 293 287 285 288 293 301 308 312 311 307 302 294 285 282 283 283 283 282 279 275 273 274 271 270 271 274 278 281 283 287 291 294 296 299 302 306 307 308 311 312 312 314 315 316 316 315
250 252 250 253 259 264 262 261 266 272 276 276 278 282 286 290 290 290 293 296 299 302 303 303 303 303 302 301 302 305 309 311 310 307 302 299 299 298 297 293 287 285 287 290 298 306 309 306 301 296 292 288 284 282 281 279 276 272 269 270 271 268 268 270 273 275 276 279 284 288 291 294 298 302 305 307 309 310 312 312 313 315 315 315 315
243 246 248 253 256 258 257 258 264 269 273 276 280 285 289 291 293 296 300 301 301 303 303 302 301 300 299 298 298 302 306 308 307 304 299 296 297 299 299 296 290 287 288 290 296 303 303 299 294 290 286 284 281 280 280 275 268 266 267 268 265 265 266 268 270 272 277 282 286 288 291 295 298 302 306 307 308 310 312 313 314 315 315 315 314
242 245 248 250 250 250 250 251 258 264 270 276 282 287 289 290 292 296 301 304 304 304 303 300 298 297 296 295 296 300 303 304 304 301 296 293 296 300 301 297 292 289 287 290 295 298 298 293 289 284 279 277 274 275 273 264 259 260 263 263 261 262 264 267 271 277 283 286 288 289 292 296 300 304 306 308 309 311 314 315 315 315 315 315 314
243 246 247 244 241 242 242 246 254 263 271 277 284 288 289 290 291 293 296 302 305 303 301 298 296 296 295 294 295 297 300 302 301 298 292 291 295 301 302 297 293 290 289 291 293 294 293 288 283 277 274 272 268 265 260 253 253 255 258 260 260 261 264 269 276 282 286 287 288 291 295 299 302 305 308 311 313 315 316 316 316 316 315 315 314
244 248 247 239 233 234 238 246 257 267 273 278 283 286 287 289 290 292 295 299 302 302 299 297 296 295 294 293 293 295 297 299 299 294 289 289 295 301 301 296 291 289 290 290 291 290 288 282 275 270 270 271 264 254 248 246 249 253 261 266 266 268 271 277 282 284 286 288 291 295 298 301 304 308 310 313 316 317 318 317 317 317 316 315 315
243 243 240 232 228 230 240 253 263 271 274 276 280 283 285 287 290 292 294 297 300 299 298 297 296 295 294 293 291 293 295 297 295 289 286 289 295 300 299 293 288 288 288 289 289 289 284 274 266 262 265 267 262 252 246 247 251 257 269 275 275 278 281 284 286 287 289 292 296 299 301 304 307 310 312 315 317 318 318 318 317 316 316 316 315
239 235 229 226 229 237 251 260 265 269 271 274 276 279 283 285 289 291 293 298 298 297 296 295 295 295 293 291 289 291 294 295 291 285 285 289 293 297 298 290 285 285 287 289 288 287 282 268 259 258 261 264 261 256 251 252 259 268 279 282 283 286 288 289 290 290 293 296 298 301 303 307 309 311 314 316 317 318 318 317 317 316 316 316 315
234 231 227 230 238 248 257 260 262 266 270 273 275 277 280 282 285 289 293 297 296 294 294 295 295 294 292 288 287 289 293 292 288 284 286 288 291 296 296 289 285 286 289 290 287 285 281 268 258 258 261 263 262 259 257 259 267 277 283 285 288 291 292 293 293 294 296 298 299 302 305 308 310 311 314 316 317 317 316 316 316 317 317 316 315
233 231 232 239 247 252 256 257 260 265 269 271 273 276 278 280 284 288 291 293 292 292 294 294 294 292 289 286 285 288 291 290 285 284 286 288 290 295 295 290 287 288 289 288 286 283 280 270 261 262 265 265 264 263 263 266 275 281 285 287 289 291 293 294 296 297 298 299 300 303 305 307 308 311 314 316 316 316 315 316 316 317 317 316 315
233 234 237 242 248 253 256 257 259 262 264 265 268 272 275 279 284 287 288 289 291 292 293 293 292 291 287 284 284 287 288 285 282 283 285 287 290 294 293 290 288 287 287 287 286 283 277 269 262 263 265 265 264 264 266 271 278 282 285 287 289 292 294 296 298 299 300 300 301 303 304 305 307 311 314 315 314 314 314 315 316 317 317 315 315
236 240 242 244 248 254 259 259 256 256 258 260 264 269 274 279 284 285 286 288 289 291 293 292 290 288 284 282 285 285 283 281 280 282 284 286 289 291 290 289 288 287 285 284 284 280 273 264 261 262 263 263 262 263 266 271 276 281 285 288 290 293 295 297 299 299 299 299 301 302 303 304 307 311 313 313 312 313 313 314 316 317 316 315 316
242 243 247 249 248 251 258 259 257 255 255 257 262 268 274 280 281 283 286 287 288 290 291 290 289 285 281 282 284 282 277 276 278 281 282 283 286 288 287 287 288 288 284 280 278 276 269 265 263 262 260 258 257 258 262 267 273 278 284 288 291 294 295 297 299 299 298 298 299 300 301 304 306 310 311 311 311 312 313 313 315 316 315 316 317
245 243 246 250 248 250 255 258 258 257 254 258 265 271 276 278 278 281 284 285 287 288 288 288 287 282 279 281 282 278 272 274 278 279 278 280 284 285 285 286 288 288 282 274 270 269 267 268 267 263 257 255 255 258 262 268 274 279 285 290 292 294 296 298 298 298 298 298 298 299 301 303 305 308 308 308 310 312 312 313 315 315 316 317 318
246 242 244 251 253 253 256 257 257 256 255 261 269 274 275 276 277 279 281 283 285 285 285 285 283 279 280 284 282 275 272 273 276 276 275 278 282 283 284 287 289 287 280 271 264 262 263 267 269 265 258 256 259 264 267 272 277 282 287 291 293 295 297 297 297 297 297 297 298 299 300 302 304 305 306 307 309 310 311 313 315 315 316 317 318
245 244 248 255 256 254 256 257 254 252 256 264 270 272 272 274 275 276 278 281 282 282 283 282 279 279 283 284 275 268 272 275 273 272 274 277 281 282 284 287 289 285 277 269 262 261 263 267 270 268 263 260 262 266 271 275 279 283 288 292 295 297 298 297 296 296 296 296 298 299 300 302 303 304 305 307 308 309 311 312 314 316 317 317 318
Height
5892 5891 5891 5890 5890 5889 5889 5888 5887 5886 5885 5884 5883 5882 5881 5881 5880 5879 5878 5878 5877 5876 5875 5875 5875 5874 5874 5873 5873 5872 5871 5870 5870 5869 5868 5868 5867 5866 5866 5865 5865 5864 5864 5863 5862 5861 5861 5860 5860 5859 5859 5858 5858 5857 5857 5857 5856 5856 5856 5855 5855 5854 5853 5853 5853 5853 5853 5852 5852 5852 5852 5851 5851 5850 5850 5849 5849 5848 5847 5846 5845 5844 5844 5843 5842
5891 5891 5890 5890 5890 5889 5889 5888 5887 5886 5885 5884 5883 5882 5882 5881 5881 5880 5879 5878 5877 5876 5876 5875 5875 5874 5874 5873 5873 5872 5872 5871 5870 5869 5869 5868 5867 5867 5866 5866 5865 5865 5864 5863 5863 5862 5861 5861 5860 5860 5860 5859 5858 5858 5858 5858 5857 5857 5856 5856 5855 5855 5854 5854 5854 5853 5853 5853 5852 5852 5852 5851 5851 5851 5850 5849 5849 5848 5847 5846 5846 5845 5844 5843 5842
5891 5891 5890 5890 5890 5889 5889 5888 5887 5886 5885 5885 5884 5883 5882 5882 5881 5881 5880 5878 5878 5877 5876 5875 5874 5874 5873 5873 5873 5872 5872 5871 5870 5870 5869 5868 5868 5867 5867 5866 5866 5865 5864 5864 5863 5862 5862 5861 5861 5861 5860 5860 5859 5859 5858 5858 5858 5857 5857 5856 5856 5855 5855 5855 5854 5854 5854 5853 5853 5852 5852 5851 5851 5851 5850 5850 5849 5848 5848 5847 5846 5845 5844 5843 5842
5891 5891 5890 5890 5889 5889 5889 5888 5887 5887 5886 5885 5884 5883 5883 5882 5882 5881 5880 5879 5878 5877 5876 5875 5874 5874 5873 5873 5872 5872 5871 5871 5871 5870 5869 5869 5868 5867 5867 5867 5866 5865 5864 5864 5863 5863 5862 5861 5861 5861 5860 5860 5860 5859 5859 5859 5858 5858 5857 5856 5856 5856 5855 5855 5855 5854 5854 5854 5853 5853 5852 5852 5852 5851 5851 5850 5850 5849 5848 5847 5846 5845 5845 5844 5843
5891 5891 5890 5890 5889 5889 5889 5888 5888 5887 5886 5885 5884 5884 5883 5882 5882 5882 5881 5879 5878 5877 5877 5876 5875 5874 5873 5873 5872 5872 5871 5871 5870 5870 5869 5869 5868 5868 5867 5867 5866 5865 5865 5864 5863 5863 5862 5862 5861 5861 5861 5860 5860 5859 5859 5859 5858 5858 5857 5857 5856 5856 5855 5855 5855 5855 5854 5854 5853 5853 5853 5853 5852 5852 5851 5851 5850 5850 5849 5848 5847 5846 5845 5844 5843
5891 5891 5890 5890 5889 5889 5889 5888 5888 5887 5886 5885 5885 5884 5883 5883 5882 5882 5881 5880 5879 5878 5877 5876 5875 5874 5874 5873 5872 5872 5871 5871 5870 5870 5869 5869 5868 5868 5867 5867 5866 5865 5865 5864 5864 5863 5862 5862 5861 5861 5861 5860 5860 5860 5859 5859 5859 5858 5858 5857 5856 5856 5855 5855 5855 5855 5854 5854 5854 5854 5854 5853 5852 5852 5852 5851 5851 5850 5849 5848 5847 5846 5845 5844 5843
5891 5891 5890 5889 5889 5889 5888 5888 5888 5887 5886 5886 5885 5884 5883 5882 5882 5881 5881 5880 5879 5878 5877 5876 5875 5874 5874 5873 5872 5872 5871 5870 5870 5869 5869 5868 5868 5868 5867 5867 5866 5866 5865 5864 5864 5863 5862 5862 5861 5861 5860 5860 5860 5860 5859 5859 5859 5858 5858 5857 5856 5856 5856 5855 5855 5855 5855 5854 5854 5854 5854 5853 5852 5852 5852 5851 5851 5850 5849 5848 5847 5846 5845 5844 5843
5890 5890 5890 5889 5889 5888 5888 5888 5888 5887 5887 5886 5885 5884 5883 5882 5882 5881 5881 5880 5879 5878 5877 5877 5876 5875 5874 5873 5873 5872 5871 5870 5870 5869 5869 5868 5868 5868 5867 5867 5866 5866 5865 5864 5864 5863 5862 5862 5861 5860 5860 5860 5860 5860 5859 5859 5859 5858 5858 5857 5856 5856 5856 5855 5855 5855 5855 5854 5854 5854 5854 5853 5852 5852 5852 5851 5850 5850 5849 5848 5847 5846 5844 5843 5842
5890 5889 5889 5888 5888 5887 5887 5887 5887 5887 5887 5886 5885 5884 5883 5882 5882 5881 5880 5880 5879 5878 5877 5877 5876 5875 5874 5873 5873 5872 5871 5870 5870 5869 5869 5868 5868 5868 5867 5867 5866 5866 5865 5864 5864 5863 5862 5861 5861 5860 5860 5860 5860 5860 5860 5859 5858 5858 5858 5857 5856 5856 5856 5855 5855 5855 5854 5854 5854 5854 5853 5852 5852 5852 5851 5851 5850 5849 5848 5847 5846 5845 5844 5843 5842
5889 5889 5888 5888 5887 5887 5887 5887 5887 5887 5886 5886 5885 5884 5883 5882 5881 5880 5880 5879 5879 5878 5877 5877 5876 5875 5874 5873 5873 5872 5871 5870 5870 5869 5869 5868 5868 5867 5867 5867 5866 5866 5865 5864 5864 5863 5862 5861 5861 5860 5860 5860 5860 5860 5860 5859 5858 5858 5857 5856 5856 5855 5855 5855 5855 5854 5854 5854 5853 5853 5853 5852 5852 5851 5851 5850 5850 5849 5847 5846 5845 5844 5843 5842 5841
5888 5888 5888 5887 5887 5886 5886 5886 5886 5886 5886 5885 5885 5884 5883 5882 5881 5880 5879 5879 5879 5878 5877 5877 5876 5875 5874 5874 5873 5872 5872 5871 5870 5869 5869 5868 5868 5867 5867 5866 5866 5866 5865 5864 5864 5863 5862 5861 5861 5860 5860 5860 5860 5860 5860 5859 5858 5857 5857 5856 5856 5855 5855 5854 5854 5854 5854 5854 5853 5853 5853 5852 5851 5851 5850 5850 5849 5848 5847 5846 5845 5843 5842 5841 5840
5888 5887 5887 5887 5886 5886 5886 5886 5885 5885 5885 5884 5884 5884 5883 5882 5881 5880 5879 5879 5878 5878 5877 5876 5876 5876 5874 5874 5873 5872 5872 5871 5870 5870 5869 5868 5868 5867 5866 5866 5866 5865 5865 5864 5864 5863 5862 5861 5860 5860 5860 5860 5860 5860 5859 5858 5858 5857 5857 5856 5855 5855 5855 5854 5854 5854 5853 5853 5853 5853 5852 5852 5851 5851 5850 5849 5848 5847 5846 5845 5844 5843 5841 5840 5839
5887 5886 5886 5886 5885 5885 5885 5885 5885 5884 5884 5884 5883 5883 5883 5882 5881 5880 5879 5879 5878 5878 5877 5877 5876 5876 5875 5874 5873 5872 5872 5871 5870 5870 5869 5868 5868 5867 5866 5866 5865 5865 5864 5864 5863 5863 5862 5861 5860 5860 5859 5859 5859 5859 5858 5858 5857 5857 5857 5855 5855 5855 5854 5854 5854 5853 5853 5853 5852 5852 5852 5851 5851 5850 5850 5848 5847 5846 5845 5844 5843 5842 5840 5839 5838
5886 5885 5885 5885 5885 5884 5884 5884 5884 5884 5883 5883 5883 5882 5882 5881 5881 5880 5879 5878 5878 5878 5877 5877 5876 5876 5875 5874 5873 5873 5872 5871 5870 5869 5869 5868 5867 5866 5866 5865 5865 5865 5864 5863 5863 5862 5861 5861 5860 5860 5859 5859 5859 5858 5858 5857 5857 5857 5857 5855 5854 5855 5854 5853 5853 5853 5853 5852 5852 5852 5851 5851 5850 5850 5849 5848 5847 5846 5844 5843 5842 5841 5839 5838 5837
5885 5885 5884 5884 5884 5884 5884 5884 5883 5883 5882 5882 5882 5882 5881 5881 5880 5880 5879 5878 5878 5877 5877 5877 5876 5876 5875 5874 5873 5872 5872 5871 5870 5869 5868 5868 5867 5866 5865 5865 5864 5864 5863 5863 5862 5861 5861 5860 5860 5859 5859 5858 5858 5858 5857 5857 5857 5857 5856 5854 5854 5854 5854 5853 5853 5853 5852 5852 5851 5851 5851 5850 5849 5849 5848 5847 5846 5845 5844 5842 5841 5840 5838 5837 5836
5884 5884 5883 5883 5883 5883 5883 5883 5883 5882 5882 5881 5881 5881 5881 5880 5880 5879 5879 5878 5878 5877 5877 5877 5876 5875 5875 5874 5873 5872 5871 5871 5870 5869 5868 5867 5866 5866 5865 5864 5864 5863 5863 5862 5861 5861 5860 5859 5859 5858 5858 5857 5857 5857 5856 5856 5856 5856 5855 5854 5854 5854 5853 5853 5852 5852 5852 5851 5851 5850 5850 5849 5848 5848 5847 5846 5845 5844 5843 5841 5840 5839 5837 5836 5835
5883 5883 5883 5882 5883 5883 5883 5882 5882 5881 5881 5881 5880 5880 5880 5880 5879 5879 5879 5878 5877 5877 5876 5876 5876 5875 5874 5873 5873 5872 5871 5870 5870 5869 5868 5867 5866 5865 5864 5863 5863 5862 5862 5861 5861 5860 5859 5858 5858 5857 5857 5856 5856 5856 5856 5855 5855 5855 5854 5854 5854 5853 5852 5852 5851 5851 5851 5850 5850 5849 5849 5848 5847 5847 5846 5845 5844 5843 5842 5841 5839 5838 5837 5835 5834
5882 5882 5882 5881 5882 5882 5882 5881 5881 5880 5880 5880 5880 5879 5879 5879 5879 5879 5878 5878 5877 5876 5876 5876 5875 5874 5874 5873 5872 5871 5870 5870 5869 5868 5867 5866 5866 5865 5864 5863 5862 5862 5861 5861 5860 5859 5858 5857 5857 5856 5856 5855 5855 5855 5855 5854 5854 5854 5854 5854 5854 5853 5852 5851 5851 5851 5850 5850 5849 5848 5848 5847 5846 5845 5844 5843 5843 5842 5841 5840 5838 5837 5836 5834 5833
5881 5881 5881 5880 5881 5881 5881 5880 5880 5879 5879 5879 5879 5879 5878 5878 5878 5878 5878 5877 5876 5876 5876 5876 5875 5874 5873 5872 5871 5871 5870 5869 5868 5868 5866 5866 5865 5864 5863 5862 5861 5861 5860 5860 5859 5858 5857 5856 5856 5855 5855 5854 5854 5854 5854 5854 5853 5853 5852 5853 5853 5852 5852 5851 5851 5850 5850 5849 5848 5847 5847 5846 5845 5844 5843 5842 5842 5841 5839 5838 5837 5836 5834 5833 5832
5879 5880 5879 5879 5879 5879 5880 5880 5879 5879 5878 5878 5878 5878 5878 5877 5877 5877 5877 5877 5876 5875 5875 5875 5874 5873 5872 5872 5871 5870 5869 5868 5868 5867 5866 5865 5864 5863 5862 5861 5860 5860 5859 5858 5857 5857 5856 5855 5855 5854 5854 5853 5852 5853 5853 5852 5852 5852 5851 5851 5851 5851 5851 5850 5850 5849 5849 5848 5847 5846 5846 5845 5844 5843 5842 5841 5840 5839 5838 5837 5836 5834 5833 5832 5830
5878 5878 5878 5878 5878 5878 5878 5879 5878 5878 5878 5877 5877 5877 5877 5876 5876 5877 5877 5876 5875 5875 5874 5874 5873 5873 5872 5871 5870 5869 5868 5867 5867 5866 5865 5864 5863 5862 5861 5860 5859 5858 5858 5857 5856 5855 5854 5854 5853 5853 5853 5852 5851 5852 5852 5851 5851 5851 5850 5850 5850 5849 5849 5848 5848 5848 5847 5846 5845 5845 5844 5843 5842 5842 5841 5840 5839 5838 5837 5836 5834 5833 5831 5830 5829
5876 5876 5876 5876 5876 5877 5877 5877 5877 5877 5877 5877 5876 5876 5876 5875 5876 5876 5876 5875 5875 5874 5874 5873 5872 5872 5871 5870 5869 5868 5867 5867 5866 5865 5864 5863 5862 5861 5860 5859 5858 5857 5856 5856 5855 5854 5853 5852 5852 5852 5851 5850 5850 5850 5850 5850 5850 5849 5849 5849 5849 5848 5847 5847 5846 5846 5845 5844 5844 5843 5843 5842 5841 5840 5840 5839 5838 5837 5836 5834 5833 5831 5830 5829 5828
5875 5875 5875 5875 5875 5875 5876 5876 5876 5876 5876 5875 5875 5875 5874 5874 5875 5875 5875 5874 5874 5873 5873 5872 5871 5871 5870 5869 5868 5867 5866 5866 5865 5864 5863 5862 5861 5860 5859 5858 5857 5856 5855 5854 5854 5853 5852 5851 5851 5850 5850 5849 5849 5849 5849 5849 5848 5847 5847 5848 5848 5847 5846 5845 5844 5844 5843 5843 5842 5842 5841 5841 5840 5839 5838 5837 5836 5835 5834 5833 5831 5830 5829 5827 5826
5873 5873 5873 5873 5874 5874 5874 5875 5874 5874 5874 5874 5874 5874 5873 5873 5873 5874 5874 5873 5873 5872 5872 5871 5870 5869 5868 5868 5867 5866 5865 5865 5864 5863 5862 5861 5860 5859 5858 5857 5856 5855 5854 5853 5852 5851 5851 5850 5850 5849 5848 5848 5847 5847 5847 5847 5847 5846 5846 5846 5846 5845 5844 5844 5843 5842 5842 5842 5841 5841 5840 5839 5839 5838 5837 5836 5835 5834 5833 5831 5830 5828 5827 5826 5824
5872 5872 5872 5872 5872 5873 5873 5873 5873 5873 5873 5873 5873 5873 5872 5872 5872 5872 5873 5872 5872 5871 5871 5870 5869 5868 5867 5866 5866 5865 5864 5864 5863 5862 5861 5859 5858 5857 5856 5855 5854 5853 5852 5851 5851 5850 5850 5849 5848 5847 5846 5846 5845 5846 5846 5846 5846 5844 5844 5845 5844 5844 5843 5843 5842 5841 5841 5840 5840 5839 5839 5838 5837 5836 5835 5834 5833 5832 5831 5830 5828 5827 5826 5824 5823
5870 5870 5871 5870 5870 5871 5871 5871 5871 5871 5871 5871 5872 5872 5871 5870 5870 5871 5871 5871 5870 5870 5869 5868 5867 5866 5866 5865 5864 5864 5863 5862 5861 5860 5859 5858 5857 5856 5855 5854 5853 5852 5851 5850 5849 5849 5848 5848 5847 5846 5845 5844 5844 5845 5845 5845 5844 5843 5843 5843 5843 5842 5842 5841 5841 5840 5840 5839 5839 5838 5837 5836 5835 5834 5833 5832 5832 5831 5830 5828 5827 5825 5824 5823 5821
5868 5868 5869 5869 5869 5869 5869 5869 5869 5870 5870 5870 5870 5871 5870 5869 5869 5870 5870 5869 5869 5869 5868 5867 5865 5865 5864 5864 5863 5862 5861 5860 5860 5859 5858 5857 5855 5854 5853 5853 5852 5851 5849 5848 5848 5847 5847 5847 5845 5844 5843 5843 5843 5844 5844 5844 5843 5841 5842 5842 5841 5841 5840 5840 5839 5839 5838 5838 5837 5837 5836 5835 5834 5833 5832 5831 5830 5829 5828 5827 5825 5824 5822 5821 5819
5865 5866 5867 5868 5867 5868 5868 5868 5868 5868 5868 5868 5869 5869 5869 5868 5868 5868 5868 5868 5867 5867 5866 5865 5864 5863 5863 5862 5861 5860 5859 5858 5858 5857 5856 5855 5854 5853 5852 5851 5850 5849 5848 5847 5847 5846 5846 5845 5844 5843 5842 5842 5842 5842 5843 5842 5841 5840 5840 5841 5840 5839 5839 5839 5838 5837 5837 5837 5836 5835 5834 5833 5832 5831 5830 5829 5828 5827 5826 5825 5823 5822 5820 5819 5817
5863 5864 5865 5866 5866 5867 5867 5866 5866 5867 5867 5867 5867 5868 5867 5867 5867 5867 5867 5866 5866 5866 5865 5864 5862 5862 5861 5861 5860 5859 5858 5857 5856 5856 5854 5853 5852 5852 5851 5850 5849 5848 5847 5846 5845 5845 5844 5844 5843 5842 5841 5841 5841 5841 5841 5841 5839 5839 5839 5839 5839 5838 5838 5837 5836 5836 5835 5835 5834 5834 5833 5832 5831 5830 5829 5828 5826 5825 5824 5823 5821 5820 5818 5817 5815
5862 5863 5864 5865 5865 5865 5865 5865 5865 5865 5865 5865 5866 5866 5866 5866 5866 5866 5866 5865 5864 5864 5863 5862 5860 5860 5859 5859 5858 5857 5856 5855 5854 5853 5852 5851 5850 5850 5849 5848 5848 5847 5846 5846 5845 5844 5843 5843 5842 5841 5840 5840 5839 5839 5839 5839 5838 5837 5838 5838 5837 5837 5836 5835 5835 5835 5834 5833 5833 5832 5832 5831 5830 5828 5827 5825 5824 5823 5822 5821 5819 5818 5816 5815 5813
5861 5862 5863 5863 5864 5864 5864 5864 5864 5864 5864 5864 5864 5865 5864 5864 5864 5865 5864 5864 5863 5862 5861 5860 5859 5858 5857 5857 5856 5855 5854 5853 5852 5851 5850 5849 5848 5848 5847 5847 5846 5845 5845 5845 5844 5843 5842 5842 5841 5840 5839 5839 5838 5837 5837 5837 5837 5836 5836 5836 5836 5835 5834 5834 5834 5834 5833 5832 5831 5831 5830 5829 5828 5827 5825 5823 5822 5821 5820 5818 5817 5816 5814 5813 5811
5859 5861 5861 5862 5862 5862 5862 5862 5862 5862 5862 5862 5863 5863 5863 5863 5863 5863 5863 5862 5862 5861 5860 5859 5857 5856 5855 5855 5854 5853 5852 5851 5850 5849 5848 5848 5847 5846 5846 5845 5844 5844 5844 5843 5843 5842 5841 5841 5840 5839 5838 5837 5837 5836 5836 5836 5835 5835 5834 5834 5834 5833 5833 5833 5833 5833 5832 5831 5830 5829 5828 5828 5826 5825 5824 5822 5820 5819 5818 5817 5815 5814 5812 5810 5809
5858 5859 5860 5860 5860 5860 5860 5861 5861 5861 5861 5860 5861 5862 5862 5861 5861 5861 5861 5861 5860 5860 5859 5857 5856 5855 5854 5853 5853 5851 5850 5850 5849 5848 5847 5846 5846 5845 5844 5843 5843 5843 5842 5842 5841 5840 5839 5839 5838 5837 5837 5836 5835 5835 5834 5834 5834 5833 5833 5833 5832 5831 5832 5832 5832 5831 5830 5829 5828 5827 5826 5826 5824 5823 5822 5820 5819 5818 5816 5815 5813 5812 5810 5809 5807
5856 5857 5858 5858 5858 5858 5858 5859 5859 5859 5859 5859 5859 5860 5860 5859 5859 5860 5860 5859 5859 5858 5857 5856 5855 5854 5852 5851 5850 5849 5849 5849 5848 5847 5846 5845 5844 5844 5843 5842 5841 5841 5841 5840 5839 5838 5838 5837 5836 5835 5835 5834 5834 5833 5833 5832 5832 5832 5831 5831 5831 5831 5831 5831 5830 5830 5829 5828 5827 5826 5825 5824 5823 5821 5820 5819 5817 5816 5815 5813 5811 5810 5809 5807 5806
5854 5855 5855 5855 5856 5856 5856 5856 5857 5857 5857 5857 5857 5858 5859 5858 5857 5858 5858 5857 5857 5857 5855 5854 5853 5852 5850 5849 5848 5848 5848 5847 5846 5846 5845 5844 5843 5843 5842 5841 5840 5840 5839 5839 5838 5837 5836 5835 5834 5833 5833 5833 5832 5831 5831 5830 5830 5830 5830 5830 5830 5830 5830 5830 5829 5829 5828 5827 5826 5825 5824 5822 5821 5820 5819 5817 5816 5814 5813 5811 5810 5808 5807 5805 5804
5851 5851 5852 5853 5853 5853 5853 5854 5855 5855 5855 5855 5855 5856 5857 5857 5856 5855 5856 5855 5855 5854 5853 5852 5851 5849 5848 5847 5847 5846 5846 5846 5845 5844 5843 5842 5842 5841 5840 5840 5839 5838 5838 5837 5836 5836 5835 5834 5832 5832 5831 5831 5830 5830 5830 5829 5829 5829 5829 5829 5829 5829 5829 5829 5828 5828 5827 5826 5825 5824 5823 5821 5820 5818 5817 5815 5814 5812 5811 5809 5808 5806 5804 5803 5801
5848 5849 5850 5850 5850 5850 5851 5852 5852 5853 5854 5854 5854 5854 5855 5855 5854 5853 5853 5853 5852 5852 5851 5849 5848 5847 5847 5846 5845 5845 5844 5844 5843 5842 5842 5841 5840 5840 5839 5838 5837 5837 5836 5836 5835 5834 5833 5832 5831 5830 5830 5829 5829 5828 5828 5828 5828 5828 5828 5827 5827 5827 5827 5827 5827 5827 5826 5825 5824 5823 5821 5820 5818 5817 5815 5813 5812 5810 5809 5807 5806 5804 5802 5800 5798
5845 5846 5847 5848 5848 5848 5849 5850 5850 5851 5852 5852 5852 5852 5853 5853 5852 5851 5851 5851 5850 5849 5849 5847 5847 5846 5846 5845 5844 5843 5842 5842 5841 5841 5840 5839 5839 5838 5838 5837 5836 5835 5835 5834 5833 5833 5832 5831 5829 5829 5829 5828 5827 5827 5827 5827 5826 5826 5826 5826 5826 5827 5826 5826 5826 5825 5825 5824 5822 5821 5820 5818 5816 5815 5814 5812 5810 5808 5807 5805 5803 5801 5800 5798 5796
5843 5844 5844 5845 5846 5847 5847 5848 5848 5849 5850 5850 5850 5850 5850 5851 5850 5849 5849 5849 5848 5848 5847 5846 5845 5845 5844 5843 5842 5841 5840 5840 5839 5839 5838 5837 5837 5836 5836 5835 5834 5834 5833 5832 5832 5831 5830 5829 5828 5827 5827 5827 5826 5826 5826 5825 5825 5825 5825 5825 5825 5825 5825 5825 5824 5824 5822 5821 5820 5819 5818 5816 5815 5813 5812 5810 5808 5806 5805 5803 5801 5799 5797 5795 5793
5840 5841 5842 5842 5843 5844 5845 5846 5847 5847 5848 5848 5848 5848 5848 5848 5847 5847 5847 5847 5847 5846 5845 5844 5843 5843 5843 5842 5841 5839 5839 5838 5837 5837 5836 5835 5835 5835 5834 5833 5832 5832 5831 5830 5830 5829 5829 5827 5826 5825 5825 5825 5825 5825 5824 5824 5824 5824 5824 5824 5824 5824 5824 5823 5823 5822 5820 5819 5818 5817 5816 5814 5813 5812 5810 5808 5806 5804 5802 5800 5798 5796 5794 5792 5790
5838 5839 5839 5840 5841 5842 5843 5844 5845 5845 5845 5845 5845 5845 5845 5845 5845 5844 5845 5845 5845 5844 5843 5842 5841 5841 5841 5840 5839 5837 5837 5836 5835 5835 5834 5833 5833 5833 5832 5831 5830 5830 5829 5828 5828 5828 5827 5826 5824 5824 5823 5823 5823 5823 5823 5823 5823 5823 5823 5823 5823 5823 5822 5821 5820 5820 5818 5817 5816 5815 5814 5812 5811 5809 5808 5806 5804 5802 5800 5797 5795 5793 5791 5789 5786
5835 5836 5837 5838 5839 5840 5841 5842 5842 5842 5842 5842 5842 5842 5842 5842 5842 5842 5842 5843 5843 5842 5841 5840 5839 5839 5838 5838 5837 5836 5835 5834 5833 5833 5832 5831 5831 5830 5830 5830 5829 5828 5827 5827 5826 5825 5825 5824 5823 5822 5822 5821 5821 5821 5821 5821 5821 5821 5821 5821 5821 5820 5820 5819 5818 5817 5816 5815 5814 5812 5811 5810 5809 5807 5805 5803 5801 5799 5797 5795 5792 5790 5788 5785 5783
5832 5832 5834 5835 5836 5838 5839 5840 5840 5840 5839 5839 5839 5839 5839 5839 5839 5839 5839 5840 5840 5839 5838 5837 5837 5836 5836 5836 5835 5834 5833 5832 5831 5831 5830 5829 5828 5828 5828 5828 5827 5826 5825 5825 5824 5823 5823 5822 5821 5821 5820 5820 5820 5820 5820 5820 5819 5819 5819 5819 5818 5818 5817 5816 5816 5815 5814 5813 5811 5810 5809 5808 5806 5804 5802 5800 5798 5796 5794 5792 5790 5787 5785 5782 5780
5828 5829 5831 5833 5834 5835 5836 5837 5837 5837 5836 5835 5836 5837 5836 5836 5837 5837 5837 5838 5837 5836 5835 5835 5834 5834 5834 5833 5832 5832 5831 5830 5829 5828 5828 5827 5826 5826 5826 5826 5825 5824 5823 5822 5821 5821 5820 5820 5819 5819 5819 5818 5818 5818 5818 5818 5817 5817 5817 5817 5816 5816 5815 5814 5813 5813 5812 5811 5809 5808 5807 5805 5804 5802 5800 5797 5795 5793 5791 5788 5786 5784 5782 5779 5776
5825 5827 5829 5830 5832 5832 5833 5834 5834 5834 5833 5833 5833 5834 5833 5833 5834 5834 5834 5835 5834 5833 5832 5832 5831 5831 5831 5830 5829 5829 5828 5827 5826 5826 5825 5825 5824 5824 5823 5823 5823 5822 5821 5820 5820 5819 5818 5818 5818 5817 5817 5816 5816 5816 5816 5816 5816 5816 5816 5816 5815 5814 5813 5812 5811 5810 5809 5808 5807 5806 5804 5803 5801 5799 5797 5795 5792 5789 5787 5785 5783 5781 5778 5776 5773
5822 5824 5826 5827 5828 5829 5830 5831 5832 5831 5831 5830 5830 5830 5830 5830 5831 5832 5832 5832 5831 5830 5830 5829 5828 5829 5828 5828 5827 5826 5825 5824 5824 5823 5823 5823 5822 5821 5821 5820 5820 5820 5819 5818 5818 5817 5816 5816 5816 5816 5815 5815 5815 5814 5814 5814 5814 5814 5814 5814 5813 5812 5811 5810 5809 5808 5807 5805 5804 5803 5802 5800 5798 5797 5795 5792 5789 5787 5784 5782 5780 5778 5775 5772 5770
5820 5821 5822 5824 5825 5826 5827 5828 5828 5828 5828 5828 5827 5827 5827 5828 5829 5829 5829 5829 5828 5827 5827 5826 5826 5826 5825 5825 5825 5824 5823 5822 5821 5821 5821 5820 5820 5819 5819 5818 5818 5818 5817 5817 5816 5815 5815 5815 5815 5814 5814 5813 5813 5813 5813 5813 5813 5813 5813 5813 5812 5811 5809 5808 5807 5806 5805 5803 5802 5800 5799 5797 5795 5794 5792 5789 5787 5784 5781 5779 5777 5775 5772 5769 5766
5816 5817 5818 5821 5823 5823 5824 5825 5825 5825 5825 5824 5824 5824 5824 5825 5825 5825 5826 5825 5825 5825 5823 5823 5823 5823 5822 5822 5822 5821 5820 5819 5819 5819 5819 5818 5817 5817 5817 5816 5816 5816 5816 5815 5814 5813 5813 5813 5813 5813 5812 5812 5812 5812 5812 5812 5812 5812 5811 5811 5810 5809 5808 5806 5805 5804 5802 5801 5799 5798 5796 5794 5792 5790 5789 5786 5784 5781 5778 5776 5774 5771 5768 5765 5762
5812 5813 5816 5818 5819 5820 5820 5821 5822 5822 5821 5821 5821 5821 5822 5822 5822 5823 5822 5822 5822 5821 5820 5820 5820 5819 5819 5819 5819 5818 5817 5817 5817 5817 5817 5816 5815 5815 5815 5815 5814 5814 5814 5813 5813 5812 5812 5811 5811 5811 5811 5811 5810 5810 5810 5810 5810 5810 5809 5809 5808 5807 5806 5804 5803 5801 5800 5798 5797 5795 5793 5792 5789 5787 5785 5783 5780 5777 5774 5772 5770 5767 5764 5761 5758
5808 5810 5813 5814 5815 5816 5817 5818 5818 5818 5818 5818 5818 5818 5818 5819 5819 5819 5819 5819 5819 5818 5817 5817 5817 5816 5816 5817 5817 5816 5815 5815 5815 5815 5814 5814 5813 5813 5813 5813 5812 5812 5812 5811 5811 5811 5810 5810 5809 5809 5809 5809 5809 5809 5809 5808 5808 5808 5807 5807 5806 5805 5804 5802 5800 5799 5797 5795 5794 5792 5791 5789 5787 5784 5782 5780 5777 5774 5771 5768 5766 5763 5760 5757 5754
5803 5806 5808 5810 5811 5812 5814 5814 5814 5814 5815 5815 5815 5815 5815 5815 5816 5816 5816 5816 5816 5815 5814 5814 5813 5814 5814 5814 5814 5814 5813 5813 5813 5812 5811 5811 5811 5811 5811 5811 5810 5810 5809 5809 5809 5809 5808 5808 5808 5807 5807 5807 5807 5807 5807 5806 5806 5806 5805 5804 5803 5802 5801 5800 5798 5796 5795 5793 5791 5790 5788 5786 5784 5781 5779 5776 5774 5771 5768 5765 5762 5759 5756 5753 5750